TimeEDT,TemperatureF,Dew PointF,Humidity,Sea Level PressureIn,VisibilityMPH,Wind Direction,Wind SpeedMPH,Gust SpeedMPH,PrecipitationIn,Events,Conditions,WindDirDegrees,DateUTC
12:22 AM,33.8,33.8,100,29.85,2.5,NW,13.8,-,0.09,Rain,Heavy Rain,320,2014-03-30 04:22:00
12:34 AM,33.8,33.8,100,29.85,3.0,NNW,13.8,-,0.13,Rain,Rain,330,2014-03-30 04:34:00
12:38 AM,33.8,33.8,100,29.85,4.0,NNW,12.7,-,0.14,Rain,Light Freezing Rain,330,2014-03-30 04:38:00
12:54 AM,32.0,32.0,100,29.85,3.0,NNW,12.7,-,0.19,Rain,Light Freezing Rain,330,2014-03-30 04:54:00
1:09 AM,32.0,32.0,100,29.85,3.0,NNW,6.9,-,0.04,Rain,Light Freezing Rain,340,2014-03-30 05:09:00
1:20 AM,32.0,32.0,100,29.82,4.0,NNE,9.2,-,0.07,Rain,Light Freezing Rain,20,2014-03-30 05:20:00
1:54 AM,33.1,33.1,100,29.82,6.0,North,6.9,-,0.13,Rain,Light Freezing Rain,10,2014-03-30 05:54:00
2:14 AM,33.8,33.8,100,29.81,6.0,NNW,4.6,-,0.04,Rain,Light Freezing Rain,330,2014-03-30 06:14:00
2:20 AM,33.8,33.8,100,29.81,5.0,NW,5.8,-,0.06,Rain,Rain,320,2014-03-30 06:20:00
2:30 AM,32.0,32.0,100,29.80,4.0,NW,5.8,-,0.09,Rain,Rain,320,2014-03-30 06:30:00
2:54 AM,32.0,32.0,100,29.81,5.0,NW,5.8,-,0.13,Rain,Light Freezing Rain,310,2014-03-30 06:54:00
3:27 AM,32.0,32.0,100,29.79,7.0,NW,5.8,-,0.07,Rain,Light Freezing Rain,310,2014-03-30 07:27:00
3:54 AM,30.9,30.9,100,29.79,9.0,NNW,5.8,-,0.09,Rain-Snow,Freezing Rain,330,2014-03-30 07:54:00
4:54 AM,30.9,30.9,100,29.78,10.0,NW,6.9,-,0.02,Rain-Snow,Light Freezing Rain,320,2014-03-30 08:54:00
5:54 AM,30.9,30.9,100,29.79,7.0,NW,6.9,-,0.01,Rain,Light Freezing Rain,320,2014-03-30 09:54:00
6:02 AM,30.2,30.2,100,29.79,9.0,NW,5.8,-,0.00,Rain,Light Freezing Rain,310,2014-03-30 10:02:00
6:14 AM,30.2,30.2,100,29.79,9.0,WNW,8.1,-,0.00,,Light Freezing Drizzle,300,2014-03-30 10:14:00
6:54 AM,30.9,30.9,100,29.81,7.0,WNW,8.1,-,0.00,,Light Freezing Drizzle,300,2014-03-30 10:54:00
7:54 AM,30.0,30.0,100,29.81,7.0,NW,10.4,-,0.00,,Light Freezing Drizzle,320,2014-03-30 11:54:00
8:12 AM,30.2,30.2,100,29.81,10.0,NW,10.4,-,0.00,,Overcast,320,2014-03-30 12:12:00
8:21 AM,30.2,30.2,100,29.82,10.0,NW,10.4,-,0.00,,Overcast,310,2014-03-30 12:21:00
8:54 AM,30.0,30.0,100,29.83,10.0,NW,11.5,-,0.00,,Overcast,320,2014-03-30 12:54:00
9:35 AM,30.2,30.2,100,29.81,10.0,NNW,15.0,-,N/A,,Overcast,330,2014-03-30 13:35:00
9:54 AM,30.9,28.9,92,29.84,10.0,NW,15.0,21.9,N/A,,Overcast,320,2014-03-30 13:54:00
10:19 AM,30.2,30.2,100,29.84,5.0,NNW,15.0,-,0.00,Snow,Light Freezing Drizzle,340,2014-03-30 14:19:00
10:54 AM,30.9,30.9,100,29.85,7.0,NNW,11.5,-,0.00,Snow,Light Freezing Drizzle,330,2014-03-30 14:54:00
11:05 AM,32.0,30.2,93,29.85,9.0,NNW,13.8,-,0.00,,Overcast,330,2014-03-30 15:05:00
11:54 AM,33.1,30.0,89,29.85,10.0,NW,11.5,-,0.00,,Overcast,320,2014-03-30 15:54:00
12:54 PM,34.0,30.0,85,29.85,10.0,NNW,12.7,-,N/A,,Overcast,340,2014-03-30 16:54:00
1:23 PM,35.6,30.2,81,29.84,10.0,NW,13.8,-,N/A,,Overcast,320,2014-03-30 17:23:00
1:54 PM,35.1,30.9,85,29.85,10.0,NNW,13.8,21.9,N/A,,Overcast,330,2014-03-30 17:54:00
2:54 PM,36.0,30.9,82,29.84,10.0,NNW,19.6,25.3,N/A,,Overcast,340,2014-03-30 18:54:00
3:54 PM,34.0,28.9,82,29.85,10.0,North,19.6,26.5,N/A,,Overcast,350,2014-03-30 19:54:00
4:54 PM,34.0,28.9,82,29.87,10.0,North,18.4,25.3,N/A,,Overcast,350,2014-03-30 20:54:00
5:54 PM,34.0,28.9,82,29.88,10.0,NNW,18.4,26.5,N/A,,Overcast,340,2014-03-30 21:54:00
6:54 PM,33.1,28.0,82,29.91,10.0,North,16.1,-,N/A,,Overcast,350,2014-03-30 22:54:00
7:54 PM,33.1,28.0,82,29.94,10.0,NNW,17.3,24.2,N/A,,Overcast,340,2014-03-30 23:54:00
8:54 PM,32.0,28.0,85,29.97,10.0,North,13.8,-,N/A,,Overcast,350,2014-03-31 00:54:00
9:54 PM,33.1,27.0,78,29.98,9.0,NNW,11.5,-,0.00,Snow,Light Snow,340,2014-03-31 01:54:00
10:54 PM,32.0,27.0,82,29.99,10.0,NNW,11.5,-,0.00,,Overcast,330,2014-03-31 02:54:00
11:54 PM,32.0,27.0,82,30.00,10.0,NNW,12.7,-,N/A,,Overcast,340,2014-03-31 03:54:00